This demonstration page uses our WeatherBlox Daily Observations layout. Learn more.

Left ArrowRight Arrow

Hourly Observations for August 11, 2022

Temp ( °F °C ) Dew Point ( °F °C ) Humidity (%) Winds ( mph kmh ) Pressure ( in mb ) Visibility ( mi km ) Precip ( " mm )
12:56 am 00:56 Clear 73 23 65 18.1 74 74 Calm 30.16 1022 10 16 0.00 0.00
1:56 am 01:56 Clear 72 22.2 64 17.7 76 76 Calm 30.16 1022 10 16 0.00 0.00
3:56 am 03:56 Clear 67 19.6 64 17.7 89 89 Calm 30.16 1022 10 16 0.00 0.00
4:56 am 04:56 Clear 67 19.2 64 17.5 90 90 Calm 30.17 1022 10 16 0.00 0.00
5:56 am 05:56 Clear 66 19.1 64 17.8 92 92 Calm 30.17 1022 10 16 0.00 0.00
6:56 am 06:56 Sunny 66 19.1 64 17.6 91 91 Calm 30.18 1022 10 16 0.00 0.00
7:56 am 07:56 Sunny 69 20.3 64 17.9 86 86 Calm 30.19 1022 10 16 0.00 0.00
8:56 am 08:56 Sunny 74 23.5 64 17.5 69 69 S 3 6 30.20 1023 10 16 0.00 0.00
9:56 am 09:56 Sunny 80 26.6 63 17.1 56 56 SSW 3 6 30.19 1022 10 16 0.00 0.00
10:56 am 10:56 Sunny 84 29 62 16.8 48 48 SSE 5 7 30.19 1022 10 16 0.00 0.00
11:56 am 11:56 Sunny 87 30.7 62 16.7 43 43 SSE 7 11 30.17 1022 10 16 0.00 0.00
12:56 pm 12:56 Sunny 89 31.8 61 16.1 39 39 SW 6 9 30.15 1021 10 16 0.00 0.00
1:56 pm 13:56 Sunny 92 33.2 60 15.6 35 35 S 7 11 30.14 1021 10 16 0.00 0.00
2:56 pm 14:56 Sunny 92 33.6 61 16 35 35 S 10 17 30.13 1020 8 13 0.00 0.00
3:56 pm 15:56 Sunny 93 34 60 15.4 33 33 SSW 13 20 30.11 1020 9 14 0.00 0.00
4:56 pm 16:56 Partly Cloudy 93 34.1 61 16 34 34 S 9 15 30.09 1019 8 13 0.00 0.00
5:56 pm 17:56 Partly Cloudy 92 33.5 60 15.4 34 34 SSE 12 19 30.09 1019 10 16 0.00 0.00
6:56 pm 18:56 Mostly Cloudy 90 32.1 60 15.5 37 37 SE 13 20 30.09 1019 10 16 0.00 0.00
7:56 pm 19:56 Mostly Cloudy 86 30.2 61 16.2 43 43 SSE 9 15 30.10 1019 10 16 0.00 0.00
8:56 pm 20:56 Mostly Cloudy 80 26.8 65 18.1 59 59 ESE 5 7 30.11 1020 10 16 0.00 0.00
9:56 pm 21:56 Mostly Cloudy 79 26.2 65 18.3 62 62 SSE 5 7 30.11 1020 10 16 0.00 0.00
10:56 pm 22:56 Clear 76 24.5 64 17.9 67 67 SSE 5 7 30.11 1020 10 16 0.00 0.00
11:56 pm 23:56 Clear 74 23.3 64 17.9 72 72 Calm 30.11 1020 10 16 0.00 0.00

Powered by AerisWeather